Starlink 5935

operational
NORAD ID: 56453 Int'l Des: 2023-064 Owner: SPXS Country: US Constellation: starlink
LEOCIRCULAR

About Starlink 5935

Description loading...

Live Position

Loading 3D Globe...

Upcoming Passes

Altitude History

Altitude vs Time

uPlot chart will show altitude changes over time

Two-Line Element Set

1 56453U 23064F 25303.17771085 -.00000577 00000-0 -40539-4 0 9993
2 56453 69.9994 113.6454 0002583 272.8487 87.2376 14.98329058135697
Epoch: Oct 30, 2025 • Age: 13 hours

Current Status

Altitude 578.7 km
Velocity 7.57 km/s
Sub-Earth Point 41.45°N, 167.57°W
Launch Date May 10, 2023
Age 2.4 years
Type internet

Technical Details

Classification Payload
Mass 305.00 kg
Dry Mass 290.00 kg
Total Mass 305.00 kg
Length 0.20 m
Diameter 2.80 m
Span 9.00 m
Shape Box + pan
Manufacturer SPXS
Bus Type Starlink
Phase Status In Orbit
Owner/State SPXS/US

Large Constellations

Loading constellations...